STARLINK-36258, 67104

Orbit data source: Space-Track

STARLINK-36258, 67104 is a payload satellite owned by SpaceX/Seattle (US) in LEO that was launched on Mon, 15 Dec 2025 UTC via an FALCON 9 launch vehicle from the Air Force Eastern Test Range (AFETR). Payload-class satellites include a variety of spacecraft equipped with specific instruments for various scientific and technological missions. These include communications satellites like Starlink; space stations such as the ISS; scientific satellites like the Hubble; Earth observation satellites from companies like Planet Labs, Umbra, and HawkEye 360; GPS; miniature CubeSats for education and research; and military/defense satellites.

Not visible in the next 10 days
Identifier
67104, 2025-299C
Orbit
LEO
Country
Flag of USUS
Related business
Manufacturer
SpaceX/Seattle
Mission
Operational spacecraft
Bus & Motor
STARLINK V2MO, Unknown motor
Mass
575 kg wet, ~530 kg dry
Launch date (UTC)
2025-12-15 (1 week ago)
Launch vehicle
FALCON 9
Launch site
Air Force Eastern Test Range (AFETR)
Object type
Payload
Rocket body
Debris
Shape & HBR
Unknown
Radar Cross Section
RCS unknown

Expand to show TLE details & history
Last TLE update: 9 hours ago

TLE from 9 hours ago
0 STARLINK-36258
1 67104U 25299C   25355.16668980 -.01375409  55926-3 -33597-2 0  9999
2 67104  42.9996 265.3463 0002153 276.3310 286.4385 15.95318203  2163
Epoch: 2025-12-21T04:00Z
TLE epoch observation values (Epoch: 2025-12-21T04:00:01.998Z)
Latitude
-15.43112°
Longitude
-47.52747°
Altitude
290.041 km
Speed
7.735 km/s
True Right ascension
06h 49m 51s
True Declination
-15° 20' 13"
Sunlit
Object was in full shadow at epoch
Visualization orbit readout
Latitude
Unknown
Longitude
Unknown
Altitude
Unknown
Speed
Unknown
Apparent Right ascension
Unknown
Apparent Declination
Unknown
Sunlit
N/A
Visualization observer readout
Local Sidereal Time
12:16:47
Azimuth
Unknown
Elevation
Unknown
Doppler factor
Unknown
Orbital elements
Apogee altitude
290.866 km
Perigee altitude
287.994 km
Semi-major axis
6,667.567 km
Eccentricity
0.00022
Inclination
42.9996°
RAAN
265.3463°
Arg. of periapsis
276.331°
True anomaly
286.41484°
Mean anomaly
286.4385°
Eccentric anomaly
286.42667°
Mean motion
3.9865 °/min
Orbital period
90.3 mins
BSTAR
-0.0033597
Loading maneuver chart data...
Computing Atmospheric mass density...
Loading historical data...
Loading historical data...
Loading historical data...
Loading historical data...
Loading historical data...
Loading historical data...
Loading historical data...

Documentation

Showing up to 5 results
|